This is the latest recevied weather packets stored in our database for station/object KC8SWY-15. If no packets are shown the sender has not sent any weather packets the latest 1 day(s).
| Time | Temp. | Humidity | Pressure | Rain* | Wind** | Luminosity | Snow |
|---|---|---|---|---|---|---|---|
| 1778015068 | 10.56° C | 46% | 1009 hPa | 0 mm | 2.24 m/s, 311° | - | - |
| 1778014768 | 10.56° C | 45% | 1008.9 hPa | 0 mm | 1.34 m/s, 302° | - | - |
| 1778014468 | 10.56° C | 46% | 1009 hPa | 0 mm | 0.89 m/s, 308° | - | - |
| 1778014168 | 10.56° C | 45% | 1009 hPa | 0 mm | 0.89 m/s, 11° | - | - |
| 1778013868 | 11.11° C | 46% | 1009 hPa | 0 mm | 0.89 m/s, 342° | - | - |
| 1778013568 | 11.11° C | 46% | 1009 hPa | 0 mm | 1.34 m/s, 346° | - | - |
| 1778013268 | 10.56° C | 44% | 1009.2 hPa | 0 mm | 1.34 m/s, 321° | - | - |
| 1778012968 | 10.56° C | 46% | 1009.2 hPa | 0 mm | 2.68 m/s, 300° | - | - |
| 1778012668 | 10.56° C | 43% | 1009.2 hPa | 0 mm | 3.58 m/s, 322° | - | - |
| 1778012368 | 10.56° C | 43% | 1009.1 hPa | 0 mm | 2.68 m/s, 291° | - | - |
| 1778012068 | 10.56° C | 46% | 1009.2 hPa | 0 mm | 2.24 m/s, 329° | - | - |
| 1778011768 | 10.56° C | 44% | 1009.2 hPa | 0 mm | 2.68 m/s, 328° | - | - |
| 1778011468 | 10.56° C | 43% | 1009.3 hPa | 0 mm | 2.24 m/s, 318° | - | - |
| 1778011168 | 10.56° C | 43% | 1009.2 hPa | 0 mm | 1.79 m/s, 283° | - | - |
| 1778010868 | 10.56° C | 43% | 1009.2 hPa | 0 mm | 2.68 m/s, 294° | - | - |
| 1778010568 | 10.56° C | 42% | 1009.3 hPa | 0 mm | 2.24 m/s, 296° | - | - |
| 1778010268 | 10.56° C | 43% | 1009.3 hPa | 0 mm | 1.79 m/s, 286° | - | - |
| 1778009968 | 10.56° C | 44% | 1009.2 hPa | 0 mm | 1.79 m/s, 302° | - | - |
| 1778009668 | 10.56° C | 43% | 1009.2 hPa | 0 mm | 1.79 m/s, 309° | - | - |
| 1778009368 | 10.56° C | 43% | 1009.3 hPa | 0 mm | 1.79 m/s, 317° | - | - |
| 1778009068 | 10.56° C | 42% | 1009.2 hPa | 0 mm | 2.24 m/s, 286° | - | - |
| 1778008768 | 10.56° C | 41% | 1009.2 hPa | 0 mm | 2.68 m/s, 319° | - | - |
| 1778008468 | 10.56° C | 42% | 1009.2 hPa | 0 mm | 2.68 m/s, 264° | - | - |
| 1778008168 | 10.56° C | 42% | 1009.3 hPa | 0 mm | 2.68 m/s, 292° | - | - |
| 1778007868 | 11.11° C | 44% | 1009.2 hPa | 0 mm | 3.13 m/s, 317° | - | - |
* Rain latest hour (hover to see other rain measurements)
** Current wind speed in m/s (hover to see current wind gust speed)